Regional Weather Roundup
Issued by NWS Grand Forks, ND

Home | Current Version | Previous Version | Text Only | Print | Product List | Glossary On
Versions: 1 2 3 4 5 6 7 8 9 10 11 12 13 14 15 16 17 18 19 20 21 22 23 24 25 26 27 28 29 30 31 32 33 34 35 36 37 38 39 40 41 42 43 44 45 46 47 48 49 50
000
ASUS43 KFGF 260931
RWRFGF
PRAIRIE TO PINES  WEATHER ROUNDUP
NATIONAL WEATHER SERVICE EASTERN NORTH DAKOTA/GRAND FORKS ND
400 AM CDT SUN MAR 26 2017

 **SATELLITE DATA USED TO AUGMENT SKY COVER AT AUTOMATED STATIONS**
 *****  WEATHER ACROSS EASTERN NORTH DAKOTA  *****

CITY           SKY/WX    TMP DP  RH WIND       PRES   REMARKS
GRAND FORKS    CLOUDY    35  34  96 SW7       29.98S
GRAND FRKS AFB MOCLDY    34  32  93 SW8       29.97S
DEVILS LAKE    CLOUDY    34  32  92 S5        29.94S
FARGO          CLOUDY    35  33  92 CALM      30.00R
WAHPETON ARPT    N/A     34  32  93 CALM      29.99S
$$

 ***** WEATHER ACROSS CENTRAL AND WESTERN NORTH DAKOTA  *****

CITY           SKY/WX    TMP DP  RH WIND       PRES   REMARKS
BISMARCK       CLOUDY    40  35  83 SE5       29.94R
MINOT          CLOUDY    41  34  76 W7        29.90S
JAMESTOWN      FOG       33  33 100 S5        29.94F VSB 1/4
MINOT AFB      MOCLDY    34  32  94 CALM      29.89S
GARRISON         N/A     37  32  82 VRB3      29.90S
WILLISTON      FAIR      44  34  67 E6        29.90S
DICKINSON      LGT RAIN  42  34  73 CALM      29.89S
HETTINGER      CLOUDY    41  33  73 N6        29.90F
$$

 *****  OTHER AIRPORT OBSERVATIONS IN OUR AREA  *****

CITY           SKY/WX    TMP DP  RH WIND       PRES   REMARKS
WALHALLA       NOT AVBL
GRAFTON AIRPOR FAIR      34  34 100 S10       29.98F
VALLEY CITY AR FOG       32  32 100 S5        29.97F VSB 1/4
CANDO          NOT AVBL
CAVALIER APRT    N/A     36  32  87 S7        29.94S
GWINNER        CLOUDY    34  34 100 MISG      29.97F FOG
SHEYENNE NWR     N/A     34  34  99 W2        29.95S
ROLLA          CLOUDY    36  36 100 SW3       29.91S
 ***** THE ABOVE OBSERVATIONS ARE NON NWS ARE NOT QUALITY
       CONTROLLED AND MAY MIS-REPORT RAIN FOR SNOW...
$$

  *****  WEATHER ACROSS NORTHERN MINNESOTA  *****

CITY           SKY/WX    TMP DP  RH WIND       PRES   REMARKS
FLAG ISLAND    FAIR      30  28  93 S13       30.00S WCI  20
WARROAD        MOCLDY    32  28  86 S5        30.00F
ROSEAU         MOCLDY    34  28  80 S5        29.99S
HALLOCK        FAIR      34  34 100 S10       29.97S
THF RVR FALLS    N/A     32  32 100 MISG        N/A
BAUDETTE       MOCLDY    30  27  88 SE9       30.00F WCI  22
WASKISH        FAIR      30  28  93 CALM      30.01F
CROOKSTON      CLOUDY    34  34 100 S7        29.99F FOG
GREENBUSH NDAW   N/A     32  32 100 S3          N/A
$$
  *****  WEATHER ACROSS CENTRAL AND WEST MINNESOTA  *****

CITY           SKY/WX    TMP DP  RH WIND       PRES   REMARKS
FOSSTON        CLOUDY    30  28  93 CALM      30.00F
BEMIDJI        CLOUDY    31  30  94 SE3       30.00S
PARK RAPIDS    CLOUDY    34  28  79 E3        29.99S
ELBOW LAKE     CLOUDY    35  34  97 CALM      29.98S
WADENA         CLOUDY    34  28  80 E5        29.98F
DETROIT LAKES  CLOUDY    34  32  93 CALM      30.00S
MOORHEAD       CLOUDY    34  32  93 CALM      30.01S
FERGUS FALLS   CLOUDY    36  30  80 CALM      30.02S
MORRIS MN      CLOUDY    37  36  93 CALM      29.96F FOG
STAPLES        CLOUDY    34  28  80 CALM      29.99S
$$
  *****  WEATHER ELSEWHERE ACROSS MINNESOTA  *****

CITY           SKY/WX    TMP DP  RH WIND       PRES   REMARKS
DULUTH         FRZ DRZL  31  31 100 E9        30.00F FOG     WCI  23
INTRNTL FALLS  CLOUDY    31  27  85 SE5       30.03F
ELY            CLOUDY    30  28  93 CALM      30.02F
CLOQUET        CLOUDY    32  30  93 E7        30.00S FOG
WHEATON        CLOUDY    36  34  93 CALM      29.99F
BRAINERD       CLOUDY    33  29  85 E3        30.00F
HIBBING        CLOUDY    30  29  96 E3        30.01F FOG
ALEXANDRIA     CLOUDY    36  31  82 NE6       29.97F
SAINT CLOUD    CLOUDY    35  30  82 NE6       29.96F
MINNEAPOLIS    DRIZZLE   37  34  89 E10       29.94F
$$

  *****  WEATHER ACROSS SOUTH DAKOTA  *****

CITY           SKY/WX    TMP DP  RH WIND       PRES   REMARKS
SIOUX FALLS    CLOUDY    38  37  97 E6        29.91F FOG
BROOKINGS      CLOUDY    36  36 100 E5        29.91F FOG
WATERTOWN      CLOUDY    35  34  96 E3        29.92F FOG
HURON          CLOUDY    39  38  96 E3        29.93F
SISSETON         N/A     35  35 100 E3        29.96F
ABERDEEN       CLOUDY    35  33  92 E5        29.96S FOG
MITCHELL       CLOUDY    39  38  96 CALM      29.93F FOG
PIERRE         CLOUDY    40  36  86 S9        29.90R
MOBRIDGE       CLOUDY    38  34  85 SE6       29.91S
RAPID CITY     CLOUDY    43  34  70 NW12      29.84S
$$

  *****  SOME WEATHER IN NEARBY STATES *****

CITY           SKY/WX    TMP DP  RH WIND       PRES   REMARKS
GLASGOW MT     MOCLDY    37  27  67 E9        29.87S
GREAT FALLS MT FAIR      31  22  69 S9        29.92F WCI  23
CHEYENNE WY    FAIR      43  34  70 NW6       29.83F
SCOTTSBLUFF NE FAIR      44  30  57 E8        29.80F
OMAHA NE       CLOUDY    41  36  82 N8        29.89F
DES MOINES IA  LGT RAIN  42  41  96 N8        29.84F FOG
DAVENPORT IA   FOG       47  46  97 E10       29.81F VSB 1/4
CHICAGO IL     CLOUDY    47  45  93 NE6       29.88F FOG
EAU CLAIRE WI  CLOUDY    35  34  96 E8        29.96F
LA CROSSE WI   LGT RAIN  38  36  92 NE5       29.92F
$$

  *****  SOME NATIONAL WEATHER *****

CITY           SKY/WX    TMP DP  RH WIND       PRES   REMARKS
LA GUARDIA NY  CLOUDY    40  34  79 NE15      30.41S
RALEIGH NC     FAIR      56  51  84 CALM      30.20S
ATLANTA GA     LGT RAIN  60  59  96 S7        30.07F
NEW ORLEANS LA CLOUDY    69  66  90 S3        29.97S
OKLAHOMA CITY  FAIR      43  41  93 E8        29.88F
ALBUQUERQUE NM FAIR      46  31  55 CALM      29.95F
SALT LAKE CITY FAIR      37  36  96 SE5       30.02S
LOS ANGELES CA FAIR      56  54  93 W3        30.03S
BOISE ID       FAIR      40  29  64 SE10      29.98F
SEATTLE WA     CLOUDY    44  39  82 SE3       29.98F
$$

*** WEATHER ACROSS MANITOBA...SASKATCHEWAN AND ONTARIO ***
                ***ONTARIO***

CITY           SKY/WX    TMP DP  RH WIND       PRES   REMARKS
GERALDTON      PTCLDY    23   7  50 SE6       30.15F WCI  16
THUNDER BAY    CLOUDY    32  28  86 NE6       30.10F
SIOUX LOOKOUT  CLOUDY    28  21  74 S5        30.02F WCI  23
TORONTO        CLOUDY    34  32  93 E10       30.26F
BIG TROUT LK   CLOUDY    28  12  50 S15       29.97F WCI  17
PICKLE LAKE    NOT AVBL
DRYDEN         CLOUDY    30  27  86 S8        30.01S WCI  23
KENORA         MOCLDY    30  27  86 S10G17    29.99S WCI  21
$$
                *** MANITOBA***

CITY           SKY/WX    TMP DP  RH WIND       PRES   REMARKS
BRANDON        CLOUDY    32  30  93 W2        29.91S
DAUPHIN        CLEAR     34  32  93 W8        29.90R
ISLAND LAKE    CLOUDY    36  30  80 S9        29.79F
PILOT MOUND      N/A     34  32  93 SW7         N/A
THE PAS        CLEAR     18  14  86 W10       29.90R WCI   6
THOMPSON       HAIL      27  25  93 W14G22    29.73R WCI  15
WINNIPEG       CLOUDY    34  32  93 S12       29.94S
LYNN LAKE      MOCLDY    12  12 100 NW9       29.84R WCI   0
CHURCHILL      LGT SNOW  14  12  92 E16       29.97F DRFTSNOWWCI  -2
GILLAM         LGT SNOW  27  25  93 E5        29.74F VSB 3/4 WCI  21
$$
                ***SASKATCHEWAN***

CITY           SKY/WX    TMP DP  RH WIND       PRES   REMARKS
ESTEVAN        PTCLDY    34  32  93 SE5       29.89S
KINDERSLEY     PTCLDY    30  25  80 S9        29.77S WCI  22
LLOYDMINSTER   CLEAR     25  25 100 E6        29.81S FOG     WCI  18
PRINCE ALBERT  CLOUDY    30  28  93 E6        29.89R WCI  24
REGINA         MOCLDY    37  34  87 E3        29.86F
YORKTON        CLOUDY    30  30 100 VRB2      29.88S
N. BATTLEFORD  CLOUDY    30 N/A N/A E7        29.87S WCI  23
LA RONGE       MOCLDY    19  18  93 CALM      29.91R
SASKATOON      CLOUDY    28  28 100 NE9       29.87S WCI  20
SWIFT CURRENT  PTCLDY    34  25  69 SW10      29.83R
$$
NOTE: THESE ARE AUTOMATED STATIONS WITH LIMITED QUALITY CONTROL
      "FAIR" INDICATES FEW OR NO CLOUDS BELOW 12,000 FEET WITH NO
      SIGNIFICANT WEATHER AND/OR OBSTRUCTIONS TO VISIBILITY.
      SKY/WX - SKY CONDITION AND SIGNIFICANT WEATHER.
      TMP - AIR TEMPERATURE.    DP   - DEWPOINT TEMPERATURE.
      RH  - RELATIVE HUMIDITY.  PRES - PRESSURE.
      HX  - HEAT INDEX.         WCI  - WIND CHILL INDEX.
$



USA.gov is the U.S. government's official web portal to all federal, state and local government web resources and services.